Terminal Aerodrome Forecast
Issued by NWS

Home | Current Version | Previous Version | Text Only | Print | Product List | Glossary On
Versions: 1 2 3 4 5 6 7 8 9 10 11 12 13 14 15 16 17 18 19
000
FTUS41 KOKX 040818 AAA
TAFSWF
TAF AMD
KSWF 040818Z 0408/0512 VRB03KT P6SM SCT060 BKN100
      TEMPO 0409/0412 -RA
     FM041200 VRB04KT P6SM SCT035 OVC060
      TEMPO 0412/0416 5SM -RA BKN035
     FM041600 07006KT P6SM SCT035 OVC060
      TEMPO 0416/0418 5SM -RA BKN035
     FM042300 VRB03KT P6SM BKN060
     FM050500 VRB02KT P6SM SCT060
      AMD NOT SKED=

USA.gov is the U.S. government's official web portal to all federal, state and local government web resources and services.